contact:dominique.lefevre@mio.osupytheas.fr, maurice.libes@osupytheas.fr, didier.mallarino@osupytheas.fr
Project:EMSO http://www.emso-fr.org/EMSO-France
Depth: 2436.0 m
Title:EMSO Ligure Ouest : Data MII capteur MICROCAT
DateTime_Computer,Latitude,Longitude,Temperature,Conductivity,Pressure,DateTime_Instrument
DateTime_Computer,Latitude,Longitude,degC,S m-1,dbar,DateTime_Instrument
2017-11-10T00:00:37Z,42.805,6.029,13.2958,4.59986,2472.055,2017-11-10T02:02:04Z
2017-11-10T00:03:40Z,42.805,6.029,13.2946,4.59964,2472.077,2017-11-10T02:05:07Z
2017-11-10T00:06:43Z,42.805,6.029,13.2957,4.59967,2472.069,2017-11-10T02:08:10Z
2017-11-10T00:09:46Z,42.805,6.029,13.2973,4.60000,2472.055,2017-11-10T02:11:12Z
2017-11-10T00:12:48Z,42.805,6.029,13.2945,4.59978,2472.055,2017-11-10T02:14:15Z
2017-11-10T00:15:51Z,42.805,6.029,13.2959,4.60012,2472.069,2017-11-10T02:17:18Z
2017-11-10T00:18:54Z,42.805,6.029,13.2950,4.59989,2472.069,2017-11-10T02:20:21Z
2017-11-10T00:21:57Z,42.805,6.029,13.2943,4.59963,2472.069,2017-11-10T02:23:24Z
2017-11-10T00:25:00Z,42.805,6.029,13.2961,4.59998,2472.069,2017-11-10T02:26:27Z
2017-11-10T00:28:03Z,42.805,6.029,13.2940,4.59975,2472.069,2017-11-10T02:29:30Z
2017-11-10T00:31:06Z,42.805,6.029,13.2939,4.59967,2472.092,2017-11-10T02:32:33Z
2017-11-10T00:34:09Z,42.805,6.029,13.2960,4.59981,2472.047,2017-11-10T02:35:36Z
2017-11-10T00:37:12Z,42.805,6.029,13.2967,4.59988,2472.032,2017-11-10T02:38:38Z
2017-11-10T00:40:15Z,42.805,6.029,13.2951,4.59974,2472.024,2017-11-10T02:41:41Z
2017-11-10T00:43:17Z,42.805,6.029,13.2959,4.59990,2472.092,2017-11-10T02:44:44Z
2017-11-10T00:46:20Z,42.805,6.029,13.2965,4.59983,2472.047,2017-11-10T02:47:47Z
2017-11-10T00:49:23Z,42.805,6.029,13.2958,4.59977,2472.032,2017-11-10T02:50:50Z
2017-11-10T00:52:26Z,42.805,6.029,13.2961,4.59980,2472.047,2017-11-10T02:53:53Z
2017-11-10T00:55:29Z,42.805,6.029,13.2961,4.60009,2472.047,2017-11-10T02:56:56Z
2017-11-10T00:58:32Z,42.805,6.029,13.2961,4.59982,2472.047,2017-11-10T02:59:59Z
2017-11-10T01:01:35Z,42.805,6.029,13.2953,4.59972,2472.047,2017-11-10T03:03:02Z
2017-11-10T01:04:38Z,42.805,6.029,13.2961,4.59999,2472.069,2017-11-10T03:06:04Z
2017-11-10T01:07:41Z,42.805,6.029,13.2950,4.59974,2472.047,2017-11-10T03:09:07Z
2017-11-10T01:10:43Z,42.805,6.029,13.2948,4.59977,2472.055,2017-11-10T03:12:10Z
2017-11-10T01:13:46Z,42.805,6.029,13.2956,4.59997,2472.024,2017-11-10T03:15:13Z
2017-11-10T01:16:49Z,42.805,6.029,13.2946,4.59973,2472.047,2017-11-10T03:18:16Z
2017-11-10T01:19:52Z,42.805,6.029,13.2958,4.59997,2472.047,2017-11-10T03:21:19Z
2017-11-10T01:22:55Z,42.805,6.029,13.2964,4.59964,2472.047,2017-11-10T03:24:22Z
2017-11-10T01:25:58Z,42.805,6.029,13.2959,4.59967,2472.069,2017-11-10T03:27:25Z
2017-11-10T01:29:01Z,42.805,6.029,13.2958,4.59981,2472.069,2017-11-10T03:30:28Z
2017-11-10T01:32:04Z,42.805,6.029,13.2954,4.59995,2472.024,2017-11-10T03:33:31Z
2017-11-10T01:35:07Z,42.805,6.029,13.2946,4.59963,2472.032,2017-11-10T03:36:33Z
2017-11-10T01:38:09Z,42.805,6.029,13.2952,4.59976,2472.032,2017-11-10T03:39:36Z
2017-11-10T01:41:12Z,42.805,6.029,13.2952,4.59973,2472.032,2017-11-10T03:42:39Z
2017-11-10T01:44:15Z,42.805,6.029,13.2956,4.59984,2472.024,2017-11-10T03:45:42Z
2017-11-10T01:47:18Z,42.805,6.029,13.2950,4.59975,2472.01,2017-11-10T03:48:45Z
2017-11-10T01:50:21Z,42.805,6.029,13.2957,4.59998,2472.01,2017-11-10T03:51:48Z
2017-11-10T01:53:24Z,42.805,6.029,13.2945,4.59962,2472.024,2017-11-10T03:54:51Z
2017-11-10T01:56:27Z,42.805,6.029,13.2955,4.59980,2472.024,2017-11-10T03:57:54Z
2017-11-10T01:59:30Z,42.805,6.029,13.2942,4.59962,2472.047,2017-11-10T04:00:57Z
2017-11-10T02:02:33Z,42.805,6.029,13.2958,4.59982,2472.032,2017-11-10T04:03:59Z
2017-11-10T02:05:35Z,42.805,6.029,13.2956,4.59964,2472.002,2017-11-10T04:07:02Z
2017-11-10T02:08:38Z,42.805,6.029,13.2968,4.59968,2472.047,2017-11-10T04:10:05Z
2017-11-10T02:11:41Z,42.805,6.029,13.2946,4.59970,2472.01,2017-11-10T04:13:08Z
2017-11-10T02:14:44Z,42.805,6.029,13.2966,4.59992,2471.987,2017-11-10T04:16:11Z
2017-11-10T02:17:47Z,42.805,6.029,13.2964,4.59975,2472.024,2017-11-10T04:19:14Z
2017-11-10T02:20:50Z,42.805,6.029,13.2954,4.59974,2472.01,2017-11-10T04:22:17Z
2017-11-10T02:23:53Z,42.805,6.029,13.2945,4.59963,2471.979,2017-11-10T04:25:20Z
2017-11-10T02:26:56Z,42.805,6.029,13.2968,4.59983,2471.987,2017-11-10T04:28:23Z
2017-11-10T02:29:59Z,42.805,6.029,13.2951,4.59989,2472.024,2017-11-10T04:31:25Z
2017-11-10T02:33:02Z,42.805,6.029,13.2948,4.59964,2472.024,2017-11-10T04:34:28Z
2017-11-10T02:36:04Z,42.805,6.029,13.2964,4.59978,2472.01,2017-11-10T04:37:31Z
2017-11-10T02:39:07Z,42.805,6.029,13.2964,4.60019,2472.01,2017-11-10T04:40:34Z
2017-11-10T02:42:10Z,42.805,6.029,13.2957,4.59974,2471.979,2017-11-10T04:43:37Z
2017-11-10T02:45:13Z,42.805,6.029,13.2966,4.59986,2472.002,2017-11-10T04:46:40Z
2017-11-10T02:48:16Z,42.805,6.029,13.2953,4.59978,2471.987,2017-11-10T04:49:43Z
2017-11-10T02:51:19Z,42.805,6.029,13.2948,4.59978,2471.987,2017-11-10T04:52:46Z
2017-11-10T02:54:22Z,42.805,6.029,13.2950,4.59968,2472.002,2017-11-10T04:55:49Z
2017-11-10T02:57:25Z,42.805,6.029,13.2938,4.59975,2472.002,2017-11-10T04:58:52Z
2017-11-10T03:00:28Z,42.805,6.029,13.2945,4.59970,2472.002,2017-11-10T05:01:54Z
2017-11-10T03:03:30Z,42.805,6.029,13.2963,4.59981,2472.024,2017-11-10T05:04:57Z
2017-11-10T03:06:33Z,42.805,6.029,13.2949,4.59986,2471.987,2017-11-10T05:08:00Z
2017-11-10T03:09:36Z,42.805,6.029,13.2949,4.59965,2472.002,2017-11-10T05:11:03Z
2017-11-10T03:12:39Z,42.805,6.029,13.2956,4.59984,2472.024,2017-11-10T05:14:06Z
2017-11-10T03:15:42Z,42.805,6.029,13.2972,4.59988,2472.01,2017-11-10T05:17:09Z
2017-11-10T03:18:45Z,42.805,6.029,13.2957,4.59967,2472.002,2017-11-10T05:20:12Z
2017-11-10T03:21:48Z,42.805,6.029,13.2941,4.59973,2472.002,2017-11-10T05:23:15Z
2017-11-10T03:24:51Z,42.805,6.029,13.2948,4.59965,2471.979,2017-11-10T05:26:18Z
2017-11-10T03:27:54Z,42.805,6.029,13.2966,4.59977,2471.987,2017-11-10T05:29:20Z
2017-11-10T03:30:56Z,42.805,6.029,13.2948,4.59964,2472.002,2017-11-10T05:32:23Z
2017-11-10T03:33:59Z,42.805,6.029,13.2951,4.59979,2471.987,2017-11-10T05:35:26Z
2017-11-10T03:37:02Z,42.805,6.029,13.2950,4.59973,2472.024,2017-11-10T05:38:29Z
2017-11-10T03:40:05Z,42.805,6.029,13.2959,4.59995,2472.024,2017-11-10T05:41:32Z
2017-11-10T03:43:08Z,42.805,6.029,13.2945,4.59967,2471.979,2017-11-10T05:44:35Z
2017-11-10T03:46:11Z,42.805,6.029,13.2955,4.59986,2472.002,2017-11-10T05:47:38Z
2017-11-10T03:49:14Z,42.805,6.029,13.2959,4.59982,2471.964,2017-11-10T05:50:41Z
2017-11-10T03:52:17Z,42.805,6.029,13.2961,4.59994,2471.979,2017-11-10T05:53:44Z
2017-11-10T03:55:20Z,42.805,6.029,13.2954,4.59973,2471.987,2017-11-10T05:56:46Z
2017-11-10T03:58:23Z,42.805,6.029,13.2945,4.59972,2471.964,2017-11-10T05:59:49Z
2017-11-10T04:01:25Z,42.805,6.029,13.2948,4.59962,2472.002,2017-11-10T06:02:52Z
2017-11-10T04:04:28Z,42.805,6.029,13.2958,4.59978,2471.964,2017-11-10T06:05:55Z
2017-11-10T04:07:31Z,42.805,6.029,13.2950,4.59969,2471.979,2017-11-10T06:08:58Z
2017-11-10T04:10:34Z,42.805,6.029,13.2958,4.59984,2471.987,2017-11-10T06:12:01Z
2017-11-10T04:13:37Z,42.805,6.029,13.2942,4.59961,2471.979,2017-11-10T06:15:04Z
2017-11-10T04:16:40Z,42.805,6.029,13.2945,4.59978,2471.942,2017-11-10T06:18:07Z
2017-11-10T04:19:43Z,42.805,6.029,13.2950,4.59989,2471.964,2017-11-10T06:21:10Z
2017-11-10T04:22:46Z,42.805,6.029,13.2942,4.59963,2471.979,2017-11-10T06:24:12Z
2017-11-10T04:25:49Z,42.805,6.029,13.2939,4.59963,2471.964,2017-11-10T06:27:15Z
2017-11-10T04:28:51Z,42.805,6.029,13.2953,4.60003,2471.987,2017-11-10T06:30:18Z
2017-11-10T04:31:54Z,42.805,6.029,13.2960,4.59975,2471.987,2017-11-10T06:33:21Z
2017-11-10T04:34:57Z,42.805,6.029,13.2954,4.59988,2471.979,2017-11-10T06:36:24Z
2017-11-10T04:38:00Z,42.805,6.029,13.2961,4.59977,2471.979,2017-11-10T06:39:27Z
2017-11-10T04:41:03Z,42.805,6.029,13.2954,4.59965,2471.979,2017-11-10T06:42:30Z
2017-11-10T04:44:06Z,42.805,6.029,13.2962,4.60001,2471.957,2017-11-10T06:45:33Z
2017-11-10T04:47:09Z,42.805,6.029,13.2943,4.59973,2471.979,2017-11-10T06:48:36Z
2017-11-10T04:50:12Z,42.805,6.029,13.2943,4.59960,2471.957,2017-11-10T06:51:39Z
2017-11-10T04:53:15Z,42.805,6.029,13.2955,4.59975,2471.942,2017-11-10T06:54:41Z
2017-11-10T04:56:17Z,42.805,6.029,13.2958,4.59981,2471.964,2017-11-10T06:57:44Z
2017-11-10T04:59:20Z,42.805,6.029,13.2958,4.59981,2471.979,2017-11-10T07:00:47Z
2017-11-10T05:02:23Z,42.805,6.029,13.2949,4.59967,2471.957,2017-11-10T07:03:50Z
2017-11-10T05:05:26Z,42.805,6.029,13.2948,4.59976,2471.979,2017-11-10T07:06:53Z
2017-11-10T05:08:29Z,42.805,6.029,13.2942,4.59985,2471.987,2017-11-10T07:09:56Z
2017-11-10T05:11:32Z,42.805,6.029,13.2958,4.59982,2471.957,2017-11-10T07:12:59Z
2017-11-10T05:14:35Z,42.805,6.029,13.2941,4.59962,2471.957,2017-11-10T07:16:02Z
2017-11-10T05:17:38Z,42.805,6.029,13.2949,4.59967,2471.979,2017-11-10T07:19:05Z
2017-11-10T05:20:41Z,42.805,6.029,13.2965,4.59984,2471.979,2017-11-10T07:22:07Z
2017-11-10T05:23:43Z,42.805,6.029,13.2954,4.59980,2471.964,2017-11-10T07:25:10Z
2017-11-10T05:26:46Z,42.805,6.029,13.2948,4.59973,2471.964,2017-11-10T07:28:13Z
2017-11-10T05:29:49Z,42.805,6.029,13.2954,4.59989,2471.957,2017-11-10T07:31:16Z
2017-11-10T05:32:52Z,42.805,6.029,13.2943,4.59961,2471.934,2017-11-10T07:34:19Z
2017-11-10T05:35:55Z,42.805,6.029,13.2943,4.59961,2471.919,2017-11-10T07:37:22Z
2017-11-10T05:38:58Z,42.805,6.029,13.2948,4.59961,2471.934,2017-11-10T07:40:25Z
2017-11-10T05:42:01Z,42.805,6.029,13.2945,4.59963,2471.934,2017-11-10T07:43:28Z
2017-11-10T05:45:04Z,42.805,6.029,13.2947,4.59970,2471.957,2017-11-10T07:46:31Z
2017-11-10T05:48:07Z,42.805,6.029,13.2948,4.59963,2471.979,2017-11-10T07:49:34Z
2017-11-10T05:51:10Z,42.805,6.029,13.2940,4.59978,2471.979,2017-11-10T07:52:36Z
2017-11-10T05:54:12Z,42.805,6.029,13.2939,4.59959,2471.934,2017-11-10T07:55:39Z
2017-11-10T05:57:15Z,42.805,6.029,13.2940,4.59959,2471.979,2017-11-10T07:58:42Z
2017-11-10T06:00:18Z,42.805,6.029,13.2940,4.59958,2471.942,2017-11-10T08:01:45Z
2017-11-10T06:03:21Z,42.805,6.029,13.2949,4.59968,2471.964,2017-11-10T08:04:48Z
2017-11-10T06:06:24Z,42.805,6.029,13.2945,4.59960,2471.942,2017-11-10T08:07:51Z
2017-11-10T06:09:27Z,42.805,6.029,13.2940,4.59960,2471.942,2017-11-10T08:10:54Z
2017-11-10T06:12:30Z,42.805,6.029,13.2937,4.59958,2471.957,2017-11-10T08:13:57Z
2017-11-10T06:15:33Z,42.805,6.029,13.2948,4.59959,2471.957,2017-11-10T08:16:59Z
2017-11-10T06:18:36Z,42.805,6.029,13.2939,4.59961,2471.942,2017-11-10T08:20:02Z
2017-11-10T06:21:38Z,42.805,6.029,13.2951,4.59972,2471.987,2017-11-10T08:23:05Z
2017-11-10T06:24:41Z,42.805,6.029,13.2944,4.59966,2471.934,2017-11-10T08:26:08Z
2017-11-10T06:27:44Z,42.805,6.029,13.2953,4.59987,2471.934,2017-11-10T08:29:11Z
2017-11-10T06:30:47Z,42.805,6.029,13.2939,4.59961,2471.964,2017-11-10T08:32:14Z
2017-11-10T06:33:50Z,42.805,6.029,13.2941,4.59961,2471.979,2017-11-10T08:35:17Z
2017-11-10T06:36:53Z,42.805,6.029,13.2953,4.59970,2471.957,2017-11-10T08:38:20Z
2017-11-10T06:39:56Z,42.805,6.029,13.2940,4.59967,2471.964,2017-11-10T08:41:23Z
2017-11-10T06:42:59Z,42.805,6.029,13.2945,4.59967,2471.957,2017-11-10T08:44:26Z
2017-11-10T06:46:02Z,42.805,6.029,13.2940,4.59958,2471.942,2017-11-10T08:47:28Z
2017-11-10T06:49:04Z,42.805,6.029,13.2950,4.59994,2471.964,2017-11-10T08:50:31Z
2017-11-10T06:52:07Z,42.805,6.029,13.2951,4.60009,2471.942,2017-11-10T08:53:34Z
2017-11-10T06:55:10Z,42.805,6.029,13.2946,4.59964,2471.979,2017-11-10T08:56:37Z
2017-11-10T06:58:13Z,42.805,6.029,13.2957,4.59998,2471.934,2017-11-10T08:59:40Z
2017-11-10T07:01:16Z,42.805,6.029,13.2949,4.59986,2471.979,2017-11-10T09:02:43Z
2017-11-10T07:04:19Z,42.805,6.029,13.2946,4.59966,2471.957,2017-11-10T09:05:46Z
2017-11-10T07:07:22Z,42.805,6.029,13.2947,4.59988,2471.934,2017-11-10T09:08:49Z
2017-11-10T07:10:25Z,42.805,6.029,13.2960,4.59970,2471.979,2017-11-10T09:11:52Z
2017-11-10T07:13:28Z,42.805,6.029,13.2952,4.59972,2471.957,2017-11-10T09:14:54Z
2017-11-10T07:16:30Z,42.805,6.029,13.2950,4.59970,2471.979,2017-11-10T09:17:57Z
2017-11-10T07:19:33Z,42.805,6.029,13.2948,4.59984,2471.964,2017-11-10T09:21:00Z
2017-11-10T07:22:36Z,42.805,6.029,13.2949,4.59987,2471.979,2017-11-10T09:24:03Z
2017-11-10T07:25:39Z,42.805,6.029,13.2951,4.59966,2471.957,2017-11-10T09:27:06Z
2017-11-10T07:28:42Z,42.805,6.029,13.2955,4.59987,2471.987,2017-11-10T09:30:09Z
2017-11-10T07:31:45Z,42.805,6.029,13.2954,4.59975,2471.964,2017-11-10T09:33:12Z
2017-11-10T07:34:48Z,42.805,6.029,13.2948,4.59977,2472.024,2017-11-10T09:36:15Z
2017-11-10T07:37:51Z,42.805,6.029,13.2953,4.59972,2472.002,2017-11-10T09:39:18Z
2017-11-10T07:40:54Z,42.805,6.029,13.2938,4.59961,2472.002,2017-11-10T09:42:20Z
2017-11-10T07:43:56Z,42.805,6.029,13.2940,4.59969,2471.979,2017-11-10T09:45:23Z
2017-11-10T07:46:59Z,42.805,6.029,13.2943,4.59976,2471.979,2017-11-10T09:48:26Z
2017-11-10T07:50:02Z,42.805,6.029,13.2949,4.59982,2472.002,2017-11-10T09:51:29Z
2017-11-10T07:53:05Z,42.805,6.029,13.2959,4.59988,2472.002,2017-11-10T09:54:32Z
2017-11-10T07:56:08Z,42.805,6.029,13.2949,4.59973,2471.979,2017-11-10T09:57:35Z
2017-11-10T07:59:11Z,42.805,6.029,13.2956,4.59988,2472.002,2017-11-10T10:00:38Z
2017-11-10T08:02:14Z,42.805,6.029,13.2958,4.59963,2472.002,2017-11-10T10:03:41Z
2017-11-10T08:05:17Z,42.805,6.029,13.2956,4.59987,2472.002,2017-11-10T10:06:44Z
2017-11-10T08:08:20Z,42.805,6.029,13.2953,4.59968,2471.987,2017-11-10T10:09:47Z
2017-11-10T08:11:23Z,42.805,6.029,13.2949,4.59975,2472.024,2017-11-10T10:12:49Z
2017-11-10T08:14:25Z,42.805,6.029,13.2954,4.59982,2472.01,2017-11-10T10:15:52Z
2017-11-10T08:17:28Z,42.805,6.029,13.2952,4.59992,2472.01,2017-11-10T10:18:55Z
2017-11-10T08:20:31Z,42.805,6.029,13.2956,4.60001,2472.002,2017-11-10T10:21:58Z
2017-11-10T08:23:34Z,42.805,6.029,13.2956,4.60005,2471.987,2017-11-10T10:25:01Z
2017-11-10T08:26:37Z,42.805,6.029,13.2951,4.59986,2472.002,2017-11-10T10:28:04Z
2017-11-10T08:29:40Z,42.805,6.029,13.2949,4.59990,2472.032,2017-11-10T10:31:07Z
2017-11-10T08:32:43Z,42.805,6.029,13.2956,4.59999,2472.01,2017-11-10T10:34:10Z
2017-11-10T08:35:46Z,42.805,6.029,13.2959,4.59981,2472.024,2017-11-10T10:37:13Z
2017-11-10T08:38:49Z,42.805,6.029,13.2950,4.59990,2472.024,2017-11-10T10:40:16Z
2017-11-10T08:41:51Z,42.805,6.029,13.2948,4.59986,2472.002,2017-11-10T10:43:18Z
2017-11-10T08:44:54Z,42.805,6.029,13.2958,4.59987,2472.01,2017-11-10T10:46:21Z
2017-11-10T08:47:57Z,42.805,6.029,13.2945,4.60001,2472.024,2017-11-10T10:49:24Z
2017-11-10T08:51:00Z,42.805,6.029,13.2946,4.59987,2472.069,2017-11-10T10:52:27Z
2017-11-10T08:54:03Z,42.805,6.029,13.2951,4.59984,2472.069,2017-11-10T10:55:30Z
2017-11-10T08:57:06Z,42.805,6.029,13.2950,4.59987,2472.032,2017-11-10T10:58:33Z
2017-11-10T09:00:09Z,42.805,6.029,13.2943,4.59990,2472.032,2017-11-10T11:01:36Z
2017-11-10T09:03:12Z,42.805,6.029,13.2945,4.59983,2472.032,2017-11-10T11:04:39Z
2017-11-10T09:06:15Z,42.805,6.029,13.2952,4.59997,2472.055,2017-11-10T11:07:42Z
2017-11-10T09:09:18Z,42.805,6.029,13.2948,4.59977,2472.047,2017-11-10T11:10:44Z
2017-11-10T09:12:20Z,42.805,6.029,13.2950,4.59991,2472.032,2017-11-10T11:13:47Z
2017-11-10T09:15:23Z,42.805,6.029,13.2952,4.59982,2472.032,2017-11-10T11:16:50Z
2017-11-10T09:18:26Z,42.805,6.029,13.2948,4.59975,2472.047,2017-11-10T11:19:53Z
2017-11-10T09:21:29Z,42.805,6.029,13.2948,4.59990,2472.055,2017-11-10T11:22:56Z
2017-11-10T09:24:32Z,42.805,6.029,13.2944,4.59981,2472.047,2017-11-10T11:25:59Z
2017-11-10T09:27:35Z,42.805,6.029,13.2950,4.59984,2472.055,2017-11-10T11:29:02Z
2017-11-10T09:30:38Z,42.805,6.029,13.2945,4.59978,2472.069,2017-11-10T11:32:05Z
2017-11-10T09:33:41Z,42.805,6.029,13.2946,4.59970,2472.069,2017-11-10T11:35:08Z
2017-11-10T09:36:44Z,42.805,6.029,13.2944,4.59972,2472.069,2017-11-10T11:38:11Z
2017-11-10T09:39:47Z,42.805,6.029,13.2944,4.59971,2472.055,2017-11-10T11:41:13Z
2017-11-10T09:42:49Z,42.805,6.029,13.2946,4.59973,2472.092,2017-11-10T11:44:16Z
2017-11-10T09:45:52Z,42.805,6.029,13.2958,4.59975,2472.069,2017-11-10T11:47:19Z
2017-11-10T09:48:55Z,42.805,6.029,13.2947,4.59978,2472.092,2017-11-10T11:50:22Z
2017-11-10T09:51:58Z,42.805,6.029,13.2946,4.59985,2472.069,2017-11-10T11:53:25Z
2017-11-10T09:55:01Z,42.805,6.029,13.2948,4.59974,2472.069,2017-11-10T11:56:28Z
2017-11-10T09:58:04Z,42.805,6.029,13.2943,4.59972,2472.077,2017-11-10T11:59:31Z
2017-11-10T10:01:07Z,42.805,6.029,13.2942,4.59969,2472.092,2017-11-10T12:02:34Z
2017-11-10T10:04:10Z,42.805,6.029,13.2942,4.59969,2472.069,2017-11-10T12:05:37Z
2017-11-10T10:07:13Z,42.805,6.029,13.2946,4.59978,2472.115,2017-11-10T12:08:40Z
2017-11-10T10:10:16Z,42.805,6.029,13.2949,4.59972,2472.055,2017-11-10T12:11:42Z
2017-11-10T10:13:18Z,42.805,6.029,13.2944,4.59970,2472.115,2017-11-10T12:14:45Z
2017-11-10T10:16:21Z,42.805,6.029,13.2945,4.59972,2472.092,2017-11-10T12:17:48Z
2017-11-10T10:19:24Z,42.805,6.029,13.2945,4.59975,2472.077,2017-11-10T12:20:51Z
2017-11-10T10:22:27Z,42.805,6.029,13.2950,4.59982,2472.077,2017-11-10T12:23:54Z
2017-11-10T10:25:30Z,42.805,6.029,13.2949,4.59978,2472.092,2017-11-10T12:26:57Z
2017-11-10T10:28:33Z,42.805,6.029,13.2951,4.59972,2472.115,2017-11-10T12:30:00Z
2017-11-10T10:31:36Z,42.805,6.029,13.2948,4.59975,2472.137,2017-11-10T12:33:03Z
2017-11-10T10:34:39Z,42.805,6.029,13.2947,4.59971,2472.115,2017-11-10T12:36:06Z
2017-11-10T10:37:42Z,42.805,6.029,13.2948,4.59974,2472.1,2017-11-10T12:39:08Z
2017-11-10T10:40:44Z,42.805,6.029,13.2945,4.59975,2472.077,2017-11-10T12:42:11Z
2017-11-10T10:43:47Z,42.805,6.029,13.2945,4.59975,2472.115,2017-11-10T12:45:14Z
2017-11-10T10:46:50Z,42.805,6.029,13.2947,4.59970,2472.115,2017-11-10T12:48:17Z
2017-11-10T10:49:53Z,42.805,6.029,13.2949,4.59981,2472.1,2017-11-10T12:51:20Z
2017-11-10T10:52:56Z,42.805,6.029,13.2948,4.59975,2472.115,2017-11-10T12:54:23Z
2017-11-10T10:55:59Z,42.805,6.029,13.2950,4.59975,2472.1,2017-11-10T12:57:26Z
2017-11-10T10:59:02Z,42.805,6.029,13.2946,4.59978,2472.115,2017-11-10T13:00:29Z
2017-11-10T11:02:05Z,42.805,6.029,13.2945,4.59980,2472.1,2017-11-10T13:03:32Z
2017-11-10T11:05:08Z,42.805,6.029,13.2949,4.59992,2472.115,2017-11-10T13:06:35Z
2017-11-10T11:08:11Z,42.805,6.029,13.2957,4.59981,2472.115,2017-11-10T13:09:37Z
2017-11-10T11:11:13Z,42.805,6.029,13.2948,4.59978,2472.137,2017-11-10T13:12:40Z
2017-11-10T11:14:16Z,42.805,6.029,13.2948,4.59977,2472.137,2017-11-10T13:15:43Z
2017-11-10T11:17:19Z,42.805,6.029,13.2946,4.59973,2472.1,2017-11-10T13:18:46Z
2017-11-10T11:20:22Z,42.805,6.029,13.2946,4.59975,2472.092,2017-11-10T13:21:49Z
2017-11-10T11:23:25Z,42.805,6.029,13.2949,4.59975,2472.137,2017-11-10T13:24:52Z
2017-11-10T11:26:28Z,42.805,6.029,13.2948,4.59978,2472.123,2017-11-10T13:27:55Z
2017-11-10T11:29:31Z,42.805,6.029,13.2944,4.59970,2472.092,2017-11-10T13:30:58Z
2017-11-10T11:32:34Z,42.805,6.029,13.2944,4.59970,2472.115,2017-11-10T13:34:01Z
2017-11-10T11:35:37Z,42.805,6.029,13.2950,4.59975,2472.077,2017-11-10T13:37:03Z
2017-11-10T11:38:39Z,42.805,6.029,13.2943,4.59974,2472.115,2017-11-10T13:40:06Z
2017-11-10T11:41:42Z,42.805,6.029,13.2949,4.59978,2472.092,2017-11-10T13:43:09Z
2017-11-10T11:44:45Z,42.805,6.029,13.2944,4.59980,2472.1,2017-11-10T13:46:12Z
2017-11-10T11:47:48Z,42.805,6.029,13.2944,4.59972,2472.137,2017-11-10T13:49:15Z
2017-11-10T11:50:51Z,42.805,6.029,13.2942,4.59975,2472.092,2017-11-10T13:52:18Z
2017-11-10T11:53:54Z,42.805,6.029,13.2949,4.59971,2472.115,2017-11-10T13:55:21Z
2017-11-10T11:56:57Z,42.805,6.029,13.2948,4.59972,2472.115,2017-11-10T13:58:24Z
2017-11-10T12:00:00Z,42.805,6.029,13.2946,4.59977,2472.137,2017-11-10T14:01:27Z
2017-11-10T12:03:03Z,42.805,6.029,13.2950,4.59978,2472.115,2017-11-10T14:04:30Z
2017-11-10T12:06:06Z,42.805,6.029,13.2945,4.59978,2472.077,2017-11-10T14:07:32Z
2017-11-10T12:09:08Z,42.805,6.029,13.2951,4.59976,2472.115,2017-11-10T14:10:35Z
2017-11-10T12:12:11Z,42.805,6.029,13.2954,4.59982,2472.115,2017-11-10T14:13:38Z
2017-11-10T12:15:14Z,42.805,6.029,13.2947,4.59976,2472.115,2017-11-10T14:16:41Z
2017-11-10T12:18:17Z,42.805,6.029,13.2946,4.59975,2472.1,2017-11-10T14:19:44Z
2017-11-10T12:21:20Z,42.805,6.029,13.2943,4.59973,2472.1,2017-11-10T14:22:47Z
2017-11-10T12:24:23Z,42.805,6.029,13.2940,4.59981,2472.077,2017-11-10T14:25:50Z
2017-11-10T12:27:26Z,42.805,6.029,13.2948,4.59969,2472.137,2017-11-10T14:28:53Z
2017-11-10T12:30:29Z,42.805,6.029,13.2943,4.59977,2472.092,2017-11-10T14:31:56Z
2017-11-10T12:33:32Z,42.805,6.029,13.2948,4.59973,2472.137,2017-11-10T14:34:59Z
2017-11-10T12:36:35Z,42.805,6.029,13.2943,4.59975,2472.123,2017-11-10T14:38:01Z
2017-11-10T12:39:37Z,42.805,6.029,13.2948,4.59975,2472.092,2017-11-10T14:41:04Z
2017-11-10T12:42:40Z,42.805,6.029,13.2942,4.59976,2472.092,2017-11-10T14:44:07Z
2017-11-10T12:45:43Z,42.805,6.029,13.2950,4.59981,2472.137,2017-11-10T14:47:10Z
2017-11-10T12:48:46Z,42.805,6.029,13.2949,4.59973,2472.115,2017-11-10T14:50:13Z
2017-11-10T12:51:49Z,42.805,6.029,13.2945,4.59975,2472.115,2017-11-10T14:53:16Z
2017-11-10T12:54:52Z,42.805,6.029,13.2946,4.59972,2472.1,2017-11-10T14:56:19Z
2017-11-10T12:57:55Z,42.805,6.029,13.2949,4.59975,2472.115,2017-11-10T14:59:22Z
2017-11-10T13:00:58Z,42.805,6.029,13.2945,4.59972,2472.115,2017-11-10T15:02:25Z
2017-11-10T13:04:01Z,42.805,6.029,13.2949,4.59975,2472.1,2017-11-10T15:05:28Z
2017-11-10T13:07:04Z,42.805,6.029,13.2945,4.59969,2472.092,2017-11-10T15:08:30Z
2017-11-10T13:10:06Z,42.805,6.029,13.2944,4.59969,2472.092,2017-11-10T15:11:33Z
2017-11-10T13:13:09Z,42.805,6.029,13.2943,4.59975,2472.137,2017-11-10T15:14:36Z
2017-11-10T13:16:12Z,42.805,6.029,13.2950,4.59978,2472.1,2017-11-10T15:17:39Z
2017-11-10T13:19:15Z,42.805,6.029,13.2945,4.59974,2472.077,2017-11-10T15:20:42Z
2017-11-10T13:22:18Z,42.805,6.029,13.2948,4.59972,2472.115,2017-11-10T15:23:45Z
2017-11-10T13:25:21Z,42.805,6.029,13.2945,4.59973,2472.1,2017-11-10T15:26:48Z
2017-11-10T13:28:24Z,42.805,6.029,13.2951,4.59985,2472.123,2017-11-10T15:29:51Z
2017-11-10T13:31:27Z,42.805,6.029,13.2945,4.59976,2472.1,2017-11-10T15:32:54Z
2017-11-10T13:34:30Z,42.805,6.029,13.2950,4.59979,2472.123,2017-11-10T15:35:57Z
2017-11-10T13:37:33Z,42.805,6.029,13.2945,4.59981,2472.1,2017-11-10T15:38:59Z
2017-11-10T13:40:35Z,42.805,6.029,13.2953,4.59983,2472.115,2017-11-10T15:42:02Z
2017-11-10T13:43:38Z,42.805,6.029,13.2943,4.59977,2472.137,2017-11-10T15:45:05Z
2017-11-10T13:46:41Z,42.805,6.029,13.2945,4.59974,2472.137,2017-11-10T15:48:08Z
2017-11-10T13:49:44Z,42.805,6.029,13.2948,4.59970,2472.077,2017-11-10T15:51:11Z
2017-11-10T13:52:47Z,42.805,6.029,13.2948,4.59973,2472.16,2017-11-10T15:54:14Z
2017-11-10T13:55:50Z,42.805,6.029,13.2950,4.59977,2472.1,2017-11-10T15:57:17Z
2017-11-10T13:58:53Z,42.805,6.029,13.2948,4.59978,2472.137,2017-11-10T16:00:20Z
2017-11-10T14:01:56Z,42.805,6.029,13.2944,4.59980,2472.092,2017-11-10T16:03:23Z
2017-11-10T14:04:59Z,42.805,6.029,13.2949,4.59993,2472.115,2017-11-10T16:06:25Z
2017-11-10T14:08:01Z,42.805,6.029,13.2948,4.59984,2472.123,2017-11-10T16:09:28Z
2017-11-10T14:11:04Z,42.805,6.029,13.2943,4.59980,2472.123,2017-11-10T16:12:31Z
2017-11-10T14:14:07Z,42.805,6.029,13.2947,4.59988,2472.1,2017-11-10T16:15:34Z
2017-11-10T14:17:10Z,42.805,6.029,13.2948,4.59980,2472.077,2017-11-10T16:18:37Z
2017-11-10T14:20:13Z,42.805,6.029,13.2950,4.59991,2472.069,2017-11-10T16:21:40Z
2017-11-10T14:23:16Z,42.805,6.029,13.2948,4.59980,2472.115,2017-11-10T16:24:43Z
2017-11-10T14:26:19Z,42.805,6.029,13.2947,4.59981,2472.115,2017-11-10T16:27:46Z
2017-11-10T14:29:22Z,42.805,6.029,13.2948,4.59977,2472.092,2017-11-10T16:30:49Z
2017-11-10T14:32:25Z,42.805,6.029,13.2947,4.59984,2472.115,2017-11-10T16:33:52Z
2017-11-10T14:35:28Z,42.805,6.029,13.2946,4.59981,2472.115,2017-11-10T16:36:54Z
2017-11-10T14:38:30Z,42.805,6.029,13.2948,4.59998,2472.092,2017-11-10T16:39:57Z
2017-11-10T14:41:33Z,42.805,6.029,13.2954,4.59989,2472.1,2017-11-10T16:43:00Z
2017-11-10T14:44:36Z,42.805,6.029,13.2948,4.59987,2472.077,2017-11-10T16:46:03Z
2017-11-10T14:47:39Z,42.805,6.029,13.2950,4.59983,2472.077,2017-11-10T16:49:06Z
2017-11-10T14:50:42Z,42.805,6.029,13.2948,4.60020,2472.077,2017-11-10T16:52:09Z
2017-11-10T14:53:45Z,42.805,6.029,13.2954,4.59981,2472.092,2017-11-10T16:55:12Z
2017-11-10T14:56:48Z,42.805,6.029,13.2951,4.59975,2472.069,2017-11-10T16:58:15Z